DW5430 Weather Reports


time (UTC)temp
C
wind
direction
speed
KPH
gust
KPH
rain 1hr
cm
rain 24hr
cm
rain mn
cm
humidity
%
barometer
mb
20260510031552 25 352 1.6 8.0 0.00 0.00 0.00 10 1002.4
20260510030058 25 335 4.8 12.9 0.00 0.00 0.00 10 1002.1
20260510024550 25 354 12.9 22.5 0.00 0.00 0.00 10 1001.9
20260510023050 26 322 6.4 17.7 0.00 0.00 0.00 10 1001.7
20260510021640 26 356 17.7 49.9 0.00 0.00 0.00 10 1002.0
20260510020050 26 259 27.4 56.3 0.00 0.00 0.00 11 1001.1
20260510014556 26 252 1.6 22.5 0.00 0.00 0.00 11 1001.2
20260510013058 27 249 6.4 24.1 0.00 0.00 0.00 11 1000.9
20260510011547 26 221 16.1 27.4 0.00 0.00 0.00 11 1001.0
20260510010055 27 309 16.1 43.5 0.00 0.00 0.00 10 1000.9
20260510004546 27 273 12.9 33.8 0.00 0.00 0.00 9 1000.7
20260510003045 27 286 9.7 25.7 0.00 0.00 0.00 9 1000.7
20260510001545 28 309 20.9 35.4 0.00 0.00 0.00 9 1000.8
20260510000044 28 320 14.5 29.0 0.00 0.00 0.00 8 1000.7
20260509234542 29 326 20.9 35.4 0.00 0.00 0.00 7 1000.8
20260509233041 28 12 17.7 35.4 0.00 0.00 0.00 7 1000.8
20260509231541 28 304 19.3 37.0 0.00 0.00 0.00 6 1000.9
20260509230043 28 323 19.3 43.5 0.00 0.00 0.00 6 1001.2
20260509224536 28 334 19.3 37.0 0.00 0.00 0.00 7 1001.3
20260509223038 28 274 35.4 45.1 0.00 0.00 0.00 6 1001.3
20260509221538 28 336 29.0 41.8 0.00 0.00 0.00 6 1001.6
20260509220034 28 13 24.1 46.7 0.00 0.00 0.00 6 1001.7
20260509214530 28 330 19.3 32.2 0.00 0.00 0.00 7 1001.9
20260509213030 28 11 12.9 41.8 0.00 0.00 0.00 7 1002.1
20260509211525 28 344 24.1 43.5 0.00 0.00 0.00 8 1002.6
20260509210023 28 319 16.1 35.4 0.00 0.00 0.00 8 1002.7
20260509204522 28 8 22.5 35.4 0.00 0.00 0.00 8 1003.1
20260509203024 28 309 20.9 43.5 0.00 0.00 0.00 8 1003.2
20260509201518 27 318 25.7 38.6 0.00 0.00 0.00 9 1003.6
20260509200016 28 316 19.3 32.2 0.00 0.00 0.00 9 1003.6
20260509194518 28 290 22.5 41.8 0.00 0.00 0.00 9 1003.7
20260509193020 27 342 37.0 53.1 0.00 0.00 0.00 10 1003.8
20260509191508 27 347 17.7 29.0 0.00 0.00 0.00 11 1004.2
20260509190008 27 338 24.1 32.2 0.00 0.00 0.00 11 1004.5
20260509184504 27 309 17.7 32.2 0.00 0.00 0.00 12 1004.6
20260509183002 26 305 14.5 27.4 0.00 0.00 0.00 12 1004.9
20260509181606 27 224 16.1 22.5 0.00 0.00 0.00 11 1005.0
20260509180115 26 266 8.0 25.7 0.00 0.00 0.00 12 1005.6
20260509174554 26 283 16.1 25.7 0.00 0.00 0.00 14 1006.0
20260509173103 25 291 9.7 22.5 0.00 0.00 0.00 15 1006.2
20260509171551 25 271 12.9 27.4 0.00 0.00 0.00 15 1006.4
20260509170048 25 260 12.9 20.9 0.00 0.00 0.00 15 1006.4
20260509164545 24 280 9.7 20.9 0.00 0.00 0.00 16 1006.6
20260509163042 23 316 8.0 17.7 0.00 0.00 0.00 16 1006.7
20260509161553 23 270 8.0 14.5 0.00 0.00 0.00 16 1006.8
20260509160038 21 295 6.4 14.5 0.00 0.00 0.00 18 1006.9
20260509154539 21 295 8.0 14.5 0.00 0.00 0.00 17 1007.0
20260509153050 21 274 4.8 20.9 0.00 0.00 0.00 18 1007.1
20260509151530 20 193 4.8 12.9 0.00 0.00 0.00 19 1007.0
20260509150026 19 200 0.0 4.8 0.00 0.00 0.00 21 1007.2
20260509144525 17 72 0.0 6.4 0.00 0.00 0.00 23 1007.3
20260509143024 17 39 1.6 6.4 0.00 0.00 0.00 23 1007.5
20260509141533 16 124 0.0 4.8 0.00 0.00 0.00 24 1007.3
20260509140123 15 44 4.8 8.0 0.00 0.00 0.00 25 1007.4
20260509134522 15 56 3.2 9.7 0.00 0.00 0.00 26 1007.3
20260509133023 13 112 1.6 6.4 0.00 0.00 0.00 28 1007.3
20260509131523 13 94 0.0 4.8 0.00 0.00 0.00 29 1007.2
20260509130018 13 47 6.4 8.0 0.00 0.00 0.00 28 1007.0
20260509124518 14 217 0.0 0.0 0.00 0.00 0.00 26 1006.7
20260509123014 13 179 4.8 8.0 0.00 0.00 0.00 26 1006.5
20260509121513 14 355 0.0 1.6 0.00 0.00 0.00 25 1006.6
20260509120011 13 138 0.0 8.0 0.00 0.00 0.00 26 1006.2
20260509114509 12 135 3.2 6.4 0.00 0.00 0.00 28 1006.0
20260509113008 12 116 0.0 4.8 0.00 0.00 0.00 28 1006.0
20260509111506 11 123 6.4 9.7 0.00 0.00 0.00 30 1005.9
20260509110004 11 92 4.8 8.0 0.00 0.00 0.00 30 1005.8
20260509104605 12 68 4.8 8.0 0.00 0.00 0.00 29 1005.7
20260509103106 13 229 0.0 0.0 0.00 0.00 0.00 27 1005.4
20260509101606 14 246 0.0 0.0 0.00 0.00 0.00 26 1005.2
20260509100051 15 248 0.0 0.0 0.00 0.00 0.00 25 1005.3
20260509094556 15 320 0.0 0.0 0.00 0.00 0.00 24 1005.2
20260509093048 16 217 3.2 8.0 0.00 0.00 0.00 22 1005.1
20260509091553 16 200 6.4 9.7 0.00 0.00 0.00 23 1005.2
20260509090054 15 207 4.8 9.7 0.00 0.00 0.00 24 1005.2
20260509084556 15 225 3.2 4.8 0.00 0.00 0.00 24 1005.3
20260509083143 16 221 0.0 0.0 0.00 0.00 0.00 22 1005.3
20260509081542 16 223 0.0 0.0 0.00 0.00 0.00 23 1005.1
20260509080047 16 235 3.2 6.4 0.00 0.00 0.00 22 1005.2
20260509074551 17 179 1.6 6.4 0.00 0.00 0.00 21 1005.2
20260509073045 17 176 0.0 0.0 0.00 0.00 0.00 19 1005.4
20260509071531 18 176 0.0 0.0 0.00 0.00 0.00 19 1005.2
20260509070029 18 176 0.0 0.0 0.00 0.00 0.00 18 1005.2
20260509064528 19 306 0.0 0.0 0.00 0.00 0.00 17 1005.4
20260509063031 18 260 0.0 4.8 0.00 0.00 0.00 19 1005.4
20260509061524 18 195 0.0 3.2 0.00 0.00 0.00 18 1005.3
20260509060026 20 270 0.0 0.0 0.00 0.00 0.00 17 1005.4
20260509054519 19 188 0.0 0.0 0.00 0.00 0.00 17 1005.2
20260509053029 19 65 0.0 0.0 0.00 0.00 0.00 16 1005.1
20260509051519 20 70 0.0 3.2 0.00 0.00 0.00 16 1005.2
20260509050016 21 46 0.0 6.4 0.00 0.00 0.00 15 1005.4
20260509044517 20 280 0.0 4.8 0.00 0.00 0.00 16 1005.4
20260509043036 20 224 0.0 0.0 0.00 0.00 0.00 15 1005.2
20260509041517 21 205 0.0 0.0 0.00 0.00 0.00 15 1005.2
20260509040014 21 213 0.0 0.0 0.00 0.00 0.00 14 1005.1
20260509034514 21 191 0.0 0.0 0.00 0.00 0.00 14 1005.1
20260509033014 21 181 0.0 0.0 0.00 0.00 0.00 14 1004.9